Location: Columbia
(38.9520°N, 92.3340°W)
Time: 14:57:44
(UTC-05:00)

Iridium 15 - Visible Passes

Search period start: 25 July 2014 00:00
Search period end: 04 August 2014 00:00
Orbit: 776 x 779 km, 86.4° (Epoch: 25 July)

Date Brightness Start Highest point End Pass type
(mag) Time Alt. Az. Time Alt. Az. Time Alt. Az.
25 Jul 6.8 00:09:46 10° NNW 00:14:30 43° W 00:14:30 43° W visible
25 Jul 8.1 21:59:13 10° ENE 21:59:52 10° ENE 22:00:32 10° E visible
25 Jul 6.0 23:36:02 10° N 23:41:07 82° WNW 23:41:07 82° WNW visible
26 Jul 6.2 23:02:36 10° N 23:07:42 53° E 23:07:44 53° E visible
27 Jul 8.2 00:44:46 10° NW 00:47:54 16° W 00:48:12 16° W visible
27 Jul 7.1 22:29:33 10° NNE 22:34:02 28° E 22:34:22 28° E visible
28 Jul 7.4 00:10:11 10° NNW 00:14:40 30° W 00:14:50 30° W visible
28 Jul 7.8 21:57:10 10° NE 22:00:13 16° ENE 22:01:00 15° E visible
28 Jul 6.4 23:36:13 10° NNW 23:41:19 56° W 23:41:28 56° W visible
29 Jul 5.8 23:02:36 10° N 23:07:50 78° E 23:08:07 75° ESE visible
30 Jul 8.6 00:46:31 10° WNW 00:47:46 11° WNW 00:48:35 11° W visible
30 Jul 6.5 22:29:19 10° NNE 22:34:14 41° E 22:34:46 40° E visible
31 Jul 7.9 00:10:48 10° NW 00:14:36 21° W 00:15:14 20° W visible
31 Jul 7.3 21:56:28 10° NNE 22:00:30 22° ENE 22:01:25 21° E visible
31 Jul 7.0 23:36:32 10° NNW 23:41:19 38° W 23:41:54 37° W visible
01 Aug 8.0 21:24:43 10° NE 21:26:38 12° ENE 21:28:06 11° E visible
01 Aug 6.1 23:02:43 10° N 23:07:55 73° W 23:08:34 64° SW visible
02 Aug 6.1 22:29:14 10° N 22:34:23 60° E 22:35:15 52° SE visible
03 Aug 8.4 00:11:49 10° NW 00:14:30 14° WNW 00:15:44 13° W visible
03 Aug 6.8 21:56:05 10° NNE 22:00:44 32° E 22:01:57 29° ESE visible
03 Aug 7.6 23:37:00 10° NNW 23:41:17 27° W 23:42:25 24° WSW visible
